Location: Newark
(46.9000°N, 28.3500°E)
Time: 07:07:04
(UTC+00:00)

A-11 Canister half - Visible Passes

Search period start: 25 August 2019 00:00
Search period end: 04 September 2019 00:00
Orbit: 1514 x 1686 km, 47.2° (Epoch: 24 August)

Date Brightness Start Highest point End Pass type
(mag) Time Alt. Az. Time Alt. Az. Time Alt. Az.
25 Aug 9.0 19:04:51 10° W 19:14:30 87° SSW 19:21:03 25° ESE visible
25 Aug 9.2 21:09:48 10° WNW 21:19:07 52° SW 21:19:12 52° SSW visible
25 Aug 10.8 23:16:27 10° W 23:17:21 12° W 23:17:21 12° W visible
26 Aug 9.0 18:41:56 10° W 18:51:34 88° S 18:58:52 21° ESE visible
26 Aug 9.1 20:46:52 10° WNW 20:56:13 54° SSW 20:57:00 53° SSW visible
26 Aug 10.7 22:53:17 10° W 22:55:10 14° W 22:55:10 14° W visible
27 Aug 9.1 18:19:01 10° W 18:28:37 89° SSW 18:36:43 17° ESE visible
27 Aug 9.1 20:23:57 10° WNW 20:33:19 56° SSW 20:34:52 52° S visible
27 Aug 10.6 22:30:08 10° W 22:33:02 17° W 22:33:02 17° W visible
28 Aug 9.1 17:56:07 10° W 18:05:40 90° SSE 18:14:38 14° E visible
28 Aug 9.2 20:01:02 10° WNW 20:10:26 58° SSW 20:12:47 48° SSE visible
28 Aug 10.5 22:07:01 10° W 22:10:57 19° WSW 22:10:57 19° WSW visible
29 Aug 9.1 17:33:11 10° W 17:42:43 89° N 17:52:35 10° E visible
29 Aug 9.1 19:38:07 10° WNW 19:47:32 61° SSW 19:50:44 44° SSE visible
29 Aug 10.3 21:43:56 10° W 21:48:54 22° WSW 21:48:54 22° WSW visible
30 Aug 9.1 17:10:16 10° W 17:19:46 89° N 17:29:40 10° E visible
30 Aug 9.1 19:15:12 10° WNW 19:24:37 63° SSW 19:28:44 38° SE visible
30 Aug 10.2 21:20:52 10° W 21:26:55 24° WSW 21:26:55 24° WSW visible
31 Aug 9.1 18:52:17 10° WNW 19:01:43 65° SSW 19:06:47 32° SE visible
31 Aug 10.1 20:57:50 10° W 21:04:57 27° SW 21:04:57 27° SW visible
01 Sep 9.2 18:29:22 10° WNW 18:38:48 67° SSW 18:44:51 26° SE visible
01 Sep 10.0 20:34:49 10° W 20:42:37 29° SW 20:43:02 28° SW visible
02 Sep 9.2 18:06:28 10° WNW 18:15:54 69° SSW 18:22:59 21° SE visible
02 Sep 9.9 20:11:48 10° WNW 20:19:47 30° SW 20:21:10 29° SSW visible
03 Sep 9.2 17:43:34 10° WNW 17:52:59 71° SSW 18:01:10 16° SE visible
03 Sep 9.9 19:48:49 10° WNW 19:56:55 32° SW 19:59:21 29° SSW visible
